Lid_Strength_Index
1 1 1 2 2 2 2 2 3 3 3 3 3 3 3 3 3 3 3 3 3 3 3 3 2 1 4 7 7 3 -4 -3 1 4 5 6 8 10 10 10 9 10 9 8 8 8 8
1 1 1 1 2 2 2 3 3 3 3 3 3 3 3 3 3 3 3 3 3 3 3 2 2 1 4 8 3 2 2 3 3 5 5 7 8 7 9 9 11 8 9 8 9 9 8
1 1 1 1 2 2 2 2 2 3 3 3 3 3 3 3 3 3 3 3 3 3 3 2 1 2 5 7 3 4 2 4 4 4 6 5 6 7 8 9 8 8 11 10 9 8 9
1 1 2 1 2 2 2 2 3 3 3 3 3 4 3 3 3 3 3 3 3 3 2 1 1 3 8 3 3 5 4 4 4 4 5 5 5 7 9 8 8 10 11 14 10 8 8
1 1 2 2 2 2 2 3 3 3 3 3 3 4 4 3 3 3 3 4 3 2 1 1 4 6 8 2 5 4 4 5 4 4 4 3 6 8 7 10 12 12 14 13 11 8 8
1 1 1 2 2 2 2 3 3 3 3 3 3 4 4 4 3 3 4 4 2 3 1 2 2 7 5 5 4 4 4 4 4 5 6 7 9 10 11 12 15 14 13 12 12 10 9
1 1 1 1 1 2 2 3 3 3 3 3 3 4 4 4 4 4 5 5 6 6 5 7 7 6 4 2 3 5 4 5 5 6 9 7 11 13 11 10 10 11 12 12 10 9 10
1 1 1 1 1 2 2 3 3 3 3 3 3 3 4 4 4 4 6 6 4 6 9 4 4 5 3 2 5 4 4 7 7 9 8 10 11 9 8 9 9 10 12 13 10 9 10
2 2 2 2 2 2 2 2 3 3 3 3 4 4 4 4 4 5 6 4 2 4 8 6 5 5 5 5 6 5 5 7 8 10 10 11 9 7 8 10 10 10 11 11 12 10 11
3 3 2 3 3 3 3 3 3 3 3 3 4 4 4 5 5 6 6 4 4 5 11 8 7 5 6 6 6 4 4 6 8 10 9 11 8 8 9 8 9 12 10 10 11 13 16
2 3 3 4 4 4 3 4 4 4 4 4 4 4 4 4 8 7 4 3 4 5 16 7 7 5 6 7 7 6 4 6 9 9 9 11 10 9 10 9 9 11 9 11 11 14 14
2 2 2 2 3 3 4 5 4 4 4 5 5 5 5 6 7 5 4 5 6 11 16 8 7 8 9 7 6 6 5 6 6 9 9 10 8 8 9 8 9 8 10 10 11 14 17
1 1 1 1 1 2 3 4 5 5 5 5 5 5 6 6 8 6 5 6 12 15 7 9 9 9 9 8 7 7 7 9 11 13 12 10 10 9 9 11 10 11 13 17 17 18 17
1 1 1 1 1 1 2 2 4 5 6 6 7 7 7 6 7 7 5 9 15 10 10 7 7 9 10 9 9 8 9 11 9 10 12 14 14 10 9 11 12 11 12 17 20 20 16
1 1 1 1 1 1 1 2 3 3 5 7 7 10 9 7 6 6 7 13 12 10 8 8 8 10 11 9 9 9 10 10 9 9 12 13 12 9 9 9 10 11 13 11 15 15 17
2 2 2 2 2 2 2 2 3 3 4 5 9 10 8 6 5 6 10 12 10 6 6 7 10 9 11 10 10 11 10 8 8 8 8 10 13 9 9 10 10 10 9 14 15 20 21
2 2 2 2 2 2 2 2 3 3 5 5 9 9 6 4 4 8 12 11 8 5 6 7 9 10 9 10 9 11 10 8 7 9 9 10 12 11 10 12 13 12 13 12 13 15 19
3 2 2 2 2 2 2 2 3 4 5 8 10 11 6 5 8 9 11 8 7 7 6 7 7 9 9 9 10 10 10 8 7 8 11 10 12 14 11 9 8 11 11 12 16 16 16
3 3 3 3 3 2 2 3 3 4 5 10 12 10 7 6 11 11 8 8 7 7 7 8 8 8 8 10 12 9 8 7 7 8 9 10 13 16 15 13 9 11 10 12 12 13 16
4 3 3 3 3 2 2 3 3 4 4 9 11 11 9 8 9 12 11 10 10 6 7 7 8 8 9 10 10 10 9 7 7 7 6 7 12 14 17 13 11 12 11 10 12 15 15
4 4 3 3 3 2 3 3 3 4 4 8 9 9 10 14 11 12 11 9 9 9 7 7 9 9 10 12 11 11 9 9 7 7 8 11 13 12 11 10 10 10 10 10 12 12 14
4 4 4 3 3 2 2 3 3 4 4 8 9 10 9 10 10 11 10 11 9 9 8 9 10 9 8 11 10 10 9 10 10 9 10 10 12 12 12 10 10 11 10 10 10 10 11
4 4 4 4 3 3 2 2 3 3 5 10 9 8 9 10 10 11 9 10 10 9 7 7 8 9 9 8 7 8 8 8 9 10 11 11 11 13 15 11 11 14 11 10 9 10 10
4 4 4 4 3 3 3 2 3 3 5 9 9 10 11 11 10 10 8 9 10 10 11 8 7 8 6 5 6 7 8 8 9 10 9 11 11 12 15 13 19 11 7 8 10 10 9
4 4 4 3 3 3 2 3 2 2 3 8 8 10 12 13 9 9 8 9 9 9 10 8 6 5 5 6 10 11 12 10 9 9 9 10 11 14 15 16 13 10 9 10 11 12 8
4 4 4 3 3 3 3 3 3 2 3 7 8 7 10 12 11 7 9 9 11 11 10 8 6 5 5 9 11 15 17 13 13 11 8 8 10 12 14 17 19 12 9 7 8 15 8
4 4 4 4 4 4 3 3 3 2 2 7 8 8 10 12 9 8 10 10 9 10 11 9 8 7 6 10 13 15 15 10 15 14 13 12 12 14 14 16 13 9 8 6 15 14 8
3 4 4 4 4 4 3 3 3 3 3 6 8 7 10 11 9 8 7 9 9 10 12 9 9 9 9 12 12 12 13 11 12 10 11 13 14 15 14 16 17 7 8 11 9 8 8
3 3 3 3 3 3 3 3 4 4 3 4 10 7 6 8 9 6 6 6 6 6 9 9 9 9 8 11 11 10 11 11 11 14 9 13 11 13 12 13 8 7 8 7 7 8 7